SCP
0 0 0 0 0 0 0 0 0 0 0 0 0 0 0 0 0 0 0 0 0 0 0 0 0 0 0 0 0 0 0 0 0 0 0 0 0 0 0 0 0 0 0
0 0 0 0 0 0 0 0 0 0 0 0 0 0 0 0 0 0 0 0 0 0 0 0 0 0 0 0 0 0 0 0 0 0 0 0 0 0 0 0 0 0 0
0 0 0 0 0 0 0 0 0 0 0 0 0 0 0 0 0 0 0 0 0 0 0 0 0 0 0 0 0 0 0 0 0 0 0 0 0 0 0 0 0 0 0
0 0 0 0 0 0 0 0 0 0 0 0 0 0 0 0 0 0 0 0 0 0 0 0 0 0 0 0 0 0 0 0 0 0 0 0 0 0 0 0 0 0 0
0 0 0 0 0 0 0 0 0 0 0 0 0 0 0 0 0 0 0 0 0 0 0 0 0 0 0 0 0 0 0 0 0 0 0 0 0 0 0 0 0 0 0
0 0 0 0 0 0 0 0 0 0 0 0 0 0 0 0 0 0 0 0 0 0 0 0 0 0 0 0 0 0 0 0 0 0 0 0 0 0 0 0 0 0 0
0 0 0 0 0 0 0 0 0 0 0 0 0 0 0 0 0 0 0 0 0 0 0 0 0 0 0 0 0 0 0 0 0 0 0 0 0 0 0 0 0 0 0
0 0 0 0 0 0 0 0 0 0 0 0 0 0 0 0 0 0 0 0 0 0 0 0 0 0 0 0 0 0 0 0 0 0 0 0 0 0 0 0 0 0 0
0 0 0 0 0 0 0 0 0 0 0 0 0 0 0 0 0 0 0 0 0 0 0 0 0 0 0 0 0 0 0 0 0 0 0 0 0 0 0 0 0 0 0
0 0 0 0 0 0 0 0 0 0 0 0 0 0 0 0 0 0 0 0 0 0 0 0 0 0 0 0 0 0 0 0 0 0 0 0 0 0 0 0 0 0 0
0 0 0 0 0 0 0 0 0 0 0 0 0 0 0 0 0 0 0 0 0 0 0 0 0 0 0 0 0 0 0 0 0 0 0 0 0 0 0 0 0 0 0
0 0 0 0 0 0 0 0 0 0 0 0 0 0 0 0 0 0 0 0 0 0 0 0 0 0 0 0 0 0 0 0 0 0 0 0 0 0 0 0 0 0 0
0 0 0 0 0 0 0 0 0 0 0 0 0 0 0 0 0 0 0 0 0 0 0 0 0 0 0 0 0 0 0 0 0 0 0 0 0 0 0 0 0 0 0
0 0 0 0 0 0 0 0 0 0 0 0 0 0 0 0 0 0 0 0 0 0 0 0 0 0 0 0 0 0 0 0 0 0 0 0 0 0 0 0 0 0 0
0 0 0 0 0 0 0 0 0 0 0 0 0 0 0 0 0 0 0 0 0 0 0 0 0 0 0 0 0 0 0 0 0 0 0 0 0 0 0 0 0 0 0
0 0 0 0 0 0 0 0 0 0 0 0 0 0 0 0 0 0 0 0 0 0 0 0 0 0 0 0 0 0 0 0 0 0 0 0 0 0 0 0 0 0 0
0 0 0 0 0 0 0 0 0 0 0 0 0 0 0 0 0 0 0 0 0 0 0 0 0 0 0 0 0 0 0 0 0 0 0 0 0 0 0 0 0 0 0
0 0 0 0 0 0 0 0 0 0 0 0 0 0 0 0 0 0 0 0 0 0 0 0 0 0 0 0 0 0 0 0 0 0 0 0 0 0 0 0 0 0 0
0 0 0 0 0 0 0 0 0 0 0 0 0 0 0 0 0 0 0 0 0 0 0 0 0 0 0 0 0 0 0 0 0 0 0 0 0 0 0 0 0 0 0
0 0 0 0 0 0 0 -0 0 0 0 0 0 0 0 0 0 0 0 0 0 0 0 0 0 0 0 0 0 0 0 0 0 0 0 0 0 0 0 0 0 0 0
0 0 0 0 0 0 0 0 0 0 0 0 0 0 0 0 0 0 0 0 0 0 0 0 0 0 0 0 0 0 0 0 0 0 0 0 0 0 0 0 0 0 0
0 0 0 0 0 0 0 0 0 0 0 0 0 0 0 0 0 0 0 0 0 0 0 0 0 0 0 0 0 0 0 0 0 0 0 0 0 0 0 0 0 0 0
0 0 0 0 0 0 0 0 0 0 0 0 0 0 0 0 0 0 0 0 0 0 0 0 0 0 0 0 0 0 0 0 0 0 0 0 0 0 0 0 0 0 0
0 0 0 0 0 0 0 0 0 0 0 0 0 0 0 0 0 0 0 0 0 0 0 0 0 0 0 0 0 0 0 0 0 0 0 0 0 0 0 0 0 0 0
0 0 0 0 0 0 0 0 0 0 0 0 0 0 0 0 0 0 0 0 0 0 0 0 0 0 0 0 0 0 0 0 0 0 0 0 0 0 0 0 0 0 0
0 0 0 0 0 0 0 0 0 0 0 0 0 0 0 0 0 0 0 -0 -0 0 0 0 0 0 0 0 0 0 0 0 0 0 0 0 0 0 0 0 0 0 0
Wind_Speed
5 5 6 6 6 5 6 6 7 6 5 4 3 3 2 1 1 1 1 2 2 3 3 3 3 3 3 3 2 2 4 4 2 2 3 3 3 3 3 3 2 2 2
6 6 6 6 7 7 7 6 7 7 6 4 3 3 3 2 1 1 1 1 2 2 2 3 2 2 3 3 3 3 2 3 3 2 2 3 3 3 4 4 4 4 3
8 8 8 7 7 7 8 8 7 7 6 5 4 3 3 2 1 1 1 1 2 2 2 3 3 2 2 2 2 2 3 2 3 2 2 2 0 2 3 3 4 4 3
6 7 8 8 9 9 7 7 6 6 5 6 5 5 4 3 4 2 2 2 2 2 3 3 3 3 2 2 1 2 2 2 1 2 2 1 1 1 2 3 3 4 4
8 8 9 10 9 8 7 6 6 5 5 5 6 5 3 3 2 1 2 2 1 2 3 4 3 3 2 2 2 2 2 1 1 1 1 2 2 2 1 2 4 4 3
8 7 7 7 7 7 6 6 6 6 5 6 6 6 6 5 4 3 3 2 1 2 3 4 4 3 3 3 2 2 2 2 2 1 1 1 1 1 1 1 2 3 3
9 8 8 8 8 8 8 7 8 7 6 6 6 7 7 7 6 5 5 4 3 3 4 4 4 3 4 3 3 3 2 2 2 2 1 1 1 1 1 1 1 2 3
9 10 10 10 10 10 9 8 9 8 7 8 7 6 6 5 4 5 5 5 4 4 4 5 5 5 4 4 3 2 3 2 3 3 3 2 2 2 2 2 2 1 2
10 10 10 10 10 10 10 10 10 9 8 9 8 7 7 7 6 6 5 4 4 3 4 5 5 5 5 4 4 3 3 3 3 3 3 3 2 3 3 3 3 2 2
9 10 9 10 10 10 9 8 9 10 9 9 9 8 8 8 7 5 6 6 5 4 4 5 5 5 5 5 4 4 4 4 4 3 4 4 3 3 3 3 3 4 4
11 11 11 10 10 9 8 9 9 9 9 10 9 8 8 8 7 7 7 6 5 6 6 6 6 6 6 5 5 6 5 6 5 5 5 6 5 4 4 4 4 4 4
10 10 10 8 8 9 10 10 10 10 11 10 9 9 8 8 8 8 8 7 7 6 7 6 6 7 7 6 6 7 6 7 7 7 6 7 5 6 5 4 5 5 6
7 7 7 8 9 10 10 11 11 12 10 9 10 9 9 9 10 10 8 8 8 7 7 7 8 8 7 7 7 7 7 7 8 7 7 7 6 7 5 6 6 5 5
5 6 7 7 8 8 9 9 10 9 9 9 10 10 11 11 10 9 9 9 8 8 8 9 9 8 8 8 8 8 8 8 8 8 8 8 8 9 8 6 7 6 6
2 4 6 6 6 6 7 8 8 8 8 9 10 11 10 8 8 8 8 8 8 10 9 8 8 8 7 8 9 8 9 9 9 8 9 9 11 12 9 7 7 7 6
3 2 2 2 3 5 6 6 6 6 7 8 10 8 7 7 8 9 8 8 9 8 8 9 9 9 8 11 14 11 9 9 9 9 9 9 11 12 13 14 13 11 9
6 5 3 2 2 2 3 4 4 4 6 7 6 5 6 7 8 7 7 8 9 8 9 10 10 11 12 14 14 15 10 10 10 10 9 8 8 10 9 10 12 13 14
9 9 6 5 4 4 3 2 3 3 3 2 2 2 3 5 4 5 7 8 6 7 8 9 9 10 11 14 15 15 12 10 11 11 11 11 10 10 10 9 9 10 10
8 8 8 7 7 8 6 6 6 4 3 0 1 2 3 4 4 6 7 6 5 7 7 6 8 10 12 14 15 14 8 9 12 12 12 12 12 13 13 11 11 11 10
8 9 9 11 12 10 7 8 7 6 4 3 2 2 1 2 4 5 5 4 5 6 6 7 7 9 10 12 14 14 8 10 10 10 11 14 15 15 14 12 11 13 12
8 8 9 10 9 8 8 10 8 7 4 3 4 4 3 2 2 3 2 3 3 4 5 7 7 7 10 11 13 14 9 10 10 10 9 10 16 18 17 15 13 15 11
8 8 8 8 7 7 8 9 7 5 5 5 5 5 4 4 3 2 2 2 3 4 5 6 7 6 7 9 11 14 15 14 12 11 10 10 15 17 17 14 15 16 12
6 5 6 6 7 7 7 7 5 5 5 6 6 5 5 4 4 3 3 3 3 3 4 5 6 7 5 6 12 15 15 17 13 11 14 14 15 14 12 16 16 13 9
4 4 5 6 5 6 5 4 4 4 5 6 5 5 5 5 4 3 3 3 4 4 5 5 7 7 6 6 6 7 8 11 12 12 13 15 14 12 11 10 10 10 9
2 3 3 3 3 4 4 4 4 4 5 4 4 4 4 4 4 4 3 4 4 5 6 6 7 8 9 10 12 10 8 8 9 7 7 7 7 8 9 9 9 8 8
2 2 2 2 2 3 4 4 3 3 3 3 4 3 4 4 4 4 6 6 7 11 12 12 12 10 13 17 18 18 17 17 14 8 8 10 10 10 10 10 9 9 10
Wind_Direction
158 154 158 161 154 158 158 162 151 149 140 132 135 134 154 161 160 175 152 134 120 108 96 86 69 63 67 60 64 78 54 30 2 38 12 356 8 30 28 22 21 7 331
160 162 167 170 172 178 176 169 164 163 164 153 145 144 140 151 162 160 158 171 149 141 121 113 101 86 82 64 52 67 73 27 20 66 72 16 359 0 14 22 33 22 17
172 171 178 182 180 186 186 181 179 172 167 150 121 98 82 72 86 164 208 211 183 167 141 139 124 106 97 87 65 65 87 71 23 33 106 119 191 318 335 3 17 13 22
180 180 184 186 192 195 189 182 179 174 169 160 157 153 159 175 199 193 198 203 192 185 169 157 144 128 116 111 88 80 82 100 55 21 34 66 134 105 338 333 348 359 16
194 195 192 192 195 190 184 183 178 181 176 172 170 160 163 175 162 161 190 204 214 210 188 172 162 154 151 151 130 112 101 102 116 79 52 63 56 65 105 323 332 339 338
194 195 189 184 191 188 183 180 183 195 185 179 175 176 176 172 167 185 198 207 217 228 203 183 178 175 173 176 171 157 145 145 137 134 130 134 128 128 132 237 305 314 313
191 192 190 191 195 194 192 187 190 202 192 187 189 189 186 181 188 193 198 197 205 216 211 190 187 188 191 190 180 176 182 177 172 177 182 187 194 175 165 182 250 290 305
194 197 200 200 201 200 198 193 197 205 194 195 199 193 187 186 197 199 194 199 205 214 205 195 197 202 198 196 188 194 204 196 198 200 195 201 209 192 187 185 182 268 299
201 203 202 202 204 204 203 199 200 205 201 201 196 194 193 194 201 202 200 204 211 214 205 200 203 208 207 204 195 211 221 208 215 218 214 216 219 208 209 202 191 193 250
205 209 208 206 207 208 207 200 201 207 205 199 199 201 198 200 198 192 201 207 210 209 200 206 210 214 216 210 205 220 224 220 227 219 219 225 223 216 212 210 209 207 212
205 209 211 210 208 206 203 202 204 206 203 202 201 199 198 196 193 199 208 205 205 203 207 209 210 214 220 216 212 226 225 227 237 231 225 234 226 221 217 210 209 211 207
209 210 210 204 202 205 205 206 205 206 208 202 197 201 197 191 197 208 211 204 206 208 210 209 211 218 222 218 217 230 230 227 236 237 231 240 232 227 223 214 217 219 214
219 215 208 204 207 208 208 209 207 209 205 192 194 198 198 198 206 211 209 205 207 211 212 209 215 221 223 222 223 227 233 232 236 237 234 239 230 234 229 222 226 229 227
221 217 218 217 215 211 209 210 212 206 196 190 195 203 206 207 210 210 207 208 208 211 214 215 219 222 224 227 230 229 234 238 240 238 235 237 231 234 233 228 228 229 233
258 228 223 222 219 216 213 211 211 199 189 189 201 212 211 207 207 209 211 211 212 218 217 218 223 224 224 228 227 229 234 237 243 242 239 238 238 237 231 227 226 222 228
350 327 278 250 233 223 220 214 212 198 182 193 209 213 203 203 211 215 213 214 218 219 216 220 224 226 229 229 224 221 230 232 237 243 243 243 247 247 242 237 231 219 224
10 10 0 335 295 256 214 205 199 165 173 199 212 207 202 210 216 215 214 220 222 220 222 226 225 230 234 231 231 228 225 230 233 236 240 244 241 234 240 245 247 241 234
25 25 22 18 15 16 29 59 90 119 159 207 237 237 227 235 233 222 227 230 226 225 230 232 231 235 242 234 233 232 230 234 236 235 233 236 242 235 230 239 245 246 244
32 29 30 33 34 34 41 66 64 67 68 2 262 239 217 225 227 234 241 236 229 235 236 237 232 235 246 238 233 230 232 237 241 238 234 232 239 237 225 231 243 251 253
40 38 38 42 40 29 41 61 58 56 39 359 334 318 258 234 235 239 242 237 232 243 248 250 245 243 250 247 238 227 230 239 244 243 237 232 232 234 220 223 231 243 249
45 43 47 47 36 28 49 56 49 38 12 15 25 21 2 305 274 269 261 258 251 256 257 260 259 252 253 257 248 235 228 237 243 243 241 237 227 228 225 218 225 234 237
46 46 53 45 29 30 52 54 36 6 9 27 31 22 11 2 360 351 329 304 279 273 273 272 275 265 258 255 255 245 234 234 240 243 243 239 229 225 225 221 227 230 229
48 43 56 49 29 24 44 50 11 2 19 28 21 10 5 3 1 356 336 323 306 291 288 285 286 286 276 264 256 256 249 238 238 247 244 240 233 226 228 228 224 221 221
47 43 54 51 27 12 25 26 1 10 31 28 12 2 0 354 351 346 332 320 311 304 299 296 292 290 286 281 276 271 268 254 244 247 247 242 238 231 232 230 225 219 216
57 58 64 55 16 360 5 1 4 21 28 18 4 355 351 344 338 333 319 311 295 291 295 295 292 295 293 285 281 279 278 269 258 252 247 237 229 228 227 227 226 219 214
68 59 43 18 339 340 339 336 344 11 18 357 344 337 331 328 326 322 319 300 288 293 290 280 278 283 276 281 284 282 276 269 261 244 242 238 230 227 226 224 224 220 218